owner,sensor,date,latitude,longitude,vertical_datum,wind_speed,wind_to_direction,wind_speed_of_gust,qcFlag 
DISL,ioos:station:DISL:MBLA:1,2013-06-01T00:00:00Z,30.4367,-88.0117,14.2,8.9,127.1,-9999.0,'1111122,1111122,1111122' 
DISL,ioos:station:DISL:MBLA:1,2013-06-01T00:30:00Z,30.4367,-88.0117,14.2,9.6,125.2,-9999.0,'1111122,1111122,1111122' 
DISL,ioos:station:DISL:MBLA:1,2013-06-01T01:00:00Z,30.4367,-88.0117,14.2,8.9,127.2,-9999.0,'1111122,1111122,1111122' 
DISL,ioos:station:DISL:MBLA:1,2013-06-01T01:30:00Z,30.4367,-88.0117,14.2,8.33,126.7,-9999.0,'1111122,1111122,1111122' 
DISL,ioos:station:DISL:MBLA:1,2013-06-01T02:00:00Z,30.4367,-88.0117,14.2,8.43,129.2,-9999.0,'1111122,1111122,1111122' 
DISL,ioos:station:DISL:MBLA:1,2013-06-01T02:30:00Z,30.4367,-88.0117,14.2,8.74,131.1,-9999.0,'1111122,1111122,1111122' 
DISL,ioos:station:DISL:MBLA:1,2013-06-01T03:00:00Z,30.4367,-88.0117,14.2,8.52,131.9,-9999.0,'1111122,1111122,1111122' 
DISL,ioos:station:DISL:MBLA:1,2013-06-01T03:30:00Z,30.4367,-88.0117,14.2,8.15,134.5,-9999.0,'1111122,1111122,1111122' 
DISL,ioos:station:DISL:MBLA:1,2013-06-01T04:00:00Z,30.4367,-88.0117,14.2,8.32,135.2,-9999.0,'1111122,1111122,1111122' 
DISL,ioos:station:DISL:MBLA:1,2013-06-01T04:30:00Z,30.4367,-88.0117,14.2,8.2,137.4,-9999.0,'1111122,1111122,1111122' 
DISL,ioos:station:DISL:MBLA:1,2013-06-01T05:00:00Z,30.4367,-88.0117,14.2,9.73,130.9,-9999.0,'1111122,1111122,1111122' 
DISL,ioos:station:DISL:MBLA:1,2013-06-01T05:30:00Z,30.4367,-88.0117,14.2,10.19,128.8,-9999.0,'1111122,1111122,1111122' 
DISL,ioos:station:DISL:MBLA:1,2013-06-01T06:00:00Z,30.4367,-88.0117,14.2,10.93,136.8,-9999.0,'1111122,1111122,1111122' 
DISL,ioos:station:DISL:MBLA:1,2013-06-01T06:30:00Z,30.4367,-88.0117,14.2,10.35,136.6,-9999.0,'1111122,1111122,1111122' 
DISL,ioos:station:DISL:MBLA:1,2013-06-01T07:00:00Z,30.4367,-88.0117,14.2,9.65,140.5,-9999.0,'1111122,1111122,1111122' 
DISL,ioos:station:DISL:MBLA:1,2013-06-01T07:30:00Z,30.4367,-88.0117,14.2,8.99,136.0,-9999.0,'1111122,1111122,1111122' 
DISL,ioos:station:DISL:MBLA:1,2013-06-01T08:00:00Z,30.4367,-88.0117,14.2,9.09,138.5,-9999.0,'1111122,1111122,1111122' 
DISL,ioos:station:DISL:MBLA:1,2013-06-01T08:30:00Z,30.4367,-88.0117,14.2,8.1,139.9,-9999.0,'1111122,1111122,1111122' 
DISL,ioos:station:DISL:MBLA:1,2013-06-01T09:00:00Z,30.4367,-88.0117,14.2,6.82,137.9,-9999.0,'1111122,1111122,1111122' 
DISL,ioos:station:DISL:MBLA:1,2013-06-01T09:30:00Z,30.4367,-88.0117,14.2,8.41,133.8,-9999.0,'1111122,1111122,1111122' 
DISL,ioos:station:DISL:MBLA:1,2013-06-01T10:00:00Z,30.4367,-88.0117,14.2,7.58,130.5,-9999.0,'1111122,1111122,1111122' 
DISL,ioos:station:DISL:MBLA:1,2013-06-01T10:30:00Z,30.4367,-88.0117,14.2,7.93,129.6,-9999.0,'1111122,1111122,1111122' 
DISL,ioos:station:DISL:MBLA:1,2013-06-01T11:00:00Z,30.4367,-88.0117,14.2,8.8,130.1,-9999.0,'1111122,1111122,1111122' 
DISL,ioos:station:DISL:MBLA:1,2013-06-01T11:30:00Z,30.4367,-88.0117,14.2,8.72,127.5,-9999.0,'1111122,1111122,1111122' 
DISL,ioos:station:DISL:MBLA:1,2013-06-01T12:00:00Z,30.4367,-88.0117,14.2,9.09,133.8,-9999.0,'1111122,1111122,1111122' 
DISL,ioos:station:DISL:MBLA:1,2013-06-01T12:30:00Z,30.4367,-88.0117,14.2,9.22,130.3,-9999.0,'1111122,1111122,1111122' 
DISL,ioos:station:DISL:MBLA:1,2013-06-01T13:00:00Z,30.4367,-88.0117,14.2,9.45,127.3,-9999.0,'1111122,1111122,1111122' 
DISL,ioos:station:DISL:MBLA:1,2013-06-01T13:30:00Z,30.4367,-88.0117,14.2,9.55,125.4,-9999.0,'1111122,1111122,1111122' 
DISL,ioos:station:DISL:MBLA:1,2013-06-01T14:00:00Z,30.4367,-88.0117,14.2,9.14,125.5,-9999.0,'1111122,1111122,1111122' 
DISL,ioos:station:DISL:MBLA:1,2013-06-01T14:30:00Z,30.4367,-88.0117,14.2,9.25,127.6,-9999.0,'1111122,1111122,1111122' 
DISL,ioos:station:DISL:MBLA:1,2013-06-01T15:00:00Z,30.4367,-88.0117,14.2,8.73,126.4,-9999.0,'1111122,1111122,1111122' 
DISL,ioos:station:DISL:MBLA:1,2013-06-01T15:30:00Z,30.4367,-88.0117,14.2,9.04,133.2,-9999.0,'1111122,1111122,1111122' 
DISL,ioos:station:DISL:MBLA:1,2013-06-01T16:00:00Z,30.4367,-88.0117,14.2,9.39,138.3,-9999.0,'1111122,1111122,1111122' 
DISL,ioos:station:DISL:MBLA:1,2013-06-01T16:30:00Z,30.4367,-88.0117,14.2,9.61,138.0,-9999.0,'1111122,1111122,1111122' 
DISL,ioos:station:DISL:MBLA:1,2013-06-01T17:00:00Z,30.4367,-88.0117,14.2,9.53,137.8,-9999.0,'1111122,1111122,1111122' 
DISL,ioos:station:DISL:MBLA:1,2013-06-01T17:30:00Z,30.4367,-88.0117,14.2,9.53,141.3,-9999.0,'1111122,1111122,1111122' 
DISL,ioos:station:DISL:MBLA:1,2013-06-01T18:00:00Z,30.4367,-88.0117,14.2,8.82,139.6,-9999.0,'1111122,1111122,1111122' 
DISL,ioos:station:DISL:MBLA:1,2013-06-01T18:30:00Z,30.4367,-88.0117,14.2,8.73,144.1,-9999.0,'1111122,1111122,1111122' 
DISL,ioos:station:DISL:MBLA:1,2013-06-01T19:00:00Z,30.4367,-88.0117,14.2,8.95,144.9,-9999.0,'1111122,1111122,1111122' 
DISL,ioos:station:DISL:MBLA:1,2013-06-01T19:30:00Z,30.4367,-88.0117,14.2,9.17,144.0,-9999.0,'1111122,1111122,1111122' 
DISL,ioos:station:DISL:MBLA:1,2013-06-01T20:00:00Z,30.4367,-88.0117,14.2,9.31,151.4,-9999.0,'1111122,1111122,1111122' 
DISL,ioos:station:DISL:MBLA:1,2013-06-01T20:30:00Z,30.4367,-88.0117,14.2,9.14,155.0,-9999.0,'1111122,1111122,1111122' 
DISL,ioos:station:DISL:MBLA:1,2013-06-01T21:00:00Z,30.4367,-88.0117,14.2,8.11,149.2,-9999.0,'1111122,1111122,1111122' 
DISL,ioos:station:DISL:MBLA:1,2013-06-01T21:30:00Z,30.4367,-88.0117,14.2,7.84,148.7,-9999.0,'1111122,1111122,1111122' 
DISL,ioos:station:DISL:MBLA:1,2013-06-01T22:00:00Z,30.4367,-88.0117,14.2,7.35,147.9,-9999.0,'1111122,1111122,1111122' 
DISL,ioos:station:DISL:MBLA:1,2013-06-01T22:30:00Z,30.4367,-88.0117,14.2,6.96,150.8,-9999.0,'1111122,1111122,1111122' 
DISL,ioos:station:DISL:MBLA:1,2013-06-01T23:00:00Z,30.4367,-88.0117,14.2,7.33,151.3,-9999.0,'1111122,1111122,1111122' 
DISL,ioos:station:DISL:MBLA:1,2013-06-01T23:30:00Z,30.4367,-88.0117,14.2,7.2,152.4,-9999.0,'1111122,1111122,1111122' 
DISL,ioos:station:DISL:MBLA:1,2013-06-02T00:00:00Z,30.4367,-88.0117,14.2,6.19,148.5,-9999.0,'1111122,1111122,1111122' 
DISL,ioos:station:DISL:MBLA:1,2013-06-02T00:30:00Z,30.4367,-88.0117,14.2,6.16,140.7,-9999.0,'1111122,1111122,1111122' 
DISL,ioos:station:DISL:MBLA:1,2013-06-02T01:00:00Z,30.4367,-88.0117,14.2,6.5,144.5,-9999.0,'1111122,1111122,1111122' 
DISL,ioos:station:DISL:MBLA:1,2013-06-02T01:30:00Z,30.4367,-88.0117,14.2,6.24,144.5,-9999.0,'1111122,1111122,1111122' 
DISL,ioos:station:DISL:MBLA:1,2013-06-02T02:00:00Z,30.4367,-88.0117,14.2,7.0,155.4,-9999.0,'1111122,1111122,1111122' 
DISL,ioos:station:DISL:MBLA:1,2013-06-02T02:30:00Z,30.4367,-88.0117,14.2,6.4,151.8,-9999.0,'1111122,1111122,1111122' 
DISL,ioos:station:DISL:MBLA:1,2013-06-02T03:00:00Z,30.4367,-88.0117,14.2,5.86,139.6,-9999.0,'1111122,1111122,1111122' 
DISL,ioos:station:DISL:MBLA:1,2013-06-02T03:30:00Z,30.4367,-88.0117,14.2,5.76,133.3,-9999.0,'1111122,1111122,1111122' 
DISL,ioos:station:DISL:MBLA:1,2013-06-02T04:00:00Z,30.4367,-88.0117,14.2,7.53,132.7,-9999.0,'1111122,1111122,1111122' 
DISL,ioos:station:DISL:MBLA:1,2013-06-02T04:30:00Z,30.4367,-88.0117,14.2,7.31,145.3,-9999.0,'1111122,1111122,1111122' 
DISL,ioos:station:DISL:MBLA:1,2013-06-02T05:00:00Z,30.4367,-88.0117,14.2,7.48,147.5,-9999.0,'1111122,1111122,1111122' 
DISL,ioos:station:DISL:MBLA:1,2013-06-02T05:30:00Z,30.4367,-88.0117,14.2,6.21,158.4,-9999.0,'1111122,1111122,1111122' 
DISL,ioos:station:DISL:MBLA:1,2013-06-02T06:00:00Z,30.4367,-88.0117,14.2,5.67,165.6,-9999.0,'1111122,1111122,1111122' 
DISL,ioos:station:DISL:MBLA:1,2013-06-02T06:30:00Z,30.4367,-88.0117,14.2,5.66,160.6,-9999.0,'1111122,1111122,1111122' 
DISL,ioos:station:DISL:MBLA:1,2013-06-02T07:00:00Z,30.4367,-88.0117,14.2,6.93,160.2,-9999.0,'1111122,1111122,1111122' 
DISL,ioos:station:DISL:MBLA:1,2013-06-02T07:30:00Z,30.4367,-88.0117,14.2,5.45,165.5,-9999.0,'1111122,1111122,1111122' 
DISL,ioos:station:DISL:MBLA:1,2013-06-02T08:00:00Z,30.4367,-88.0117,14.2,4.81,178.5,-9999.0,'1111122,1111122,1111122' 
DISL,ioos:station:DISL:MBLA:1,2013-06-02T08:30:00Z,30.4367,-88.0117,14.2,5.04,185.0,-9999.0,'1111122,1111122,1111122' 
DISL,ioos:station:DISL:MBLA:1,2013-06-02T09:00:00Z,30.4367,-88.0117,14.2,4.16,206.2,-9999.0,'1111122,1111122,1111122' 
DISL,ioos:station:DISL:MBLA:1,2013-06-02T09:30:00Z,30.4367,-88.0117,14.2,4.2,222.7,-9999.0,'1111122,1111122,1111122' 
DISL,ioos:station:DISL:MBLA:1,2013-06-02T10:00:00Z,30.4367,-88.0117,14.2,3.91,273.5,-9999.0,'1111122,1111122,1111122' 
DISL,ioos:station:DISL:MBLA:1,2013-06-02T10:30:00Z,30.4367,-88.0117,14.2,3.5,293.0,-9999.0,'1111122,1111122,1111122' 
DISL,ioos:station:DISL:MBLA:1,2013-06-02T11:00:00Z,30.4367,-88.0117,14.2,3.08,303.7,-9999.0,'1111122,1111122,1111122' 
DISL,ioos:station:DISL:MBLA:1,2013-06-02T11:30:00Z,30.4367,-88.0117,14.2,0.61,335.4,-9999.0,'1111122,1111122,1111122' 
DISL,ioos:station:DISL:MBLA:1,2013-06-02T12:00:00Z,30.4367,-88.0117,14.2,2.82,314.0,-9999.0,'1111122,1111122,1111122' 
DISL,ioos:station:DISL:MBLA:1,2013-06-02T12:30:00Z,30.4367,-88.0117,14.2,2.18,341.3,-9999.0,'1111122,1111122,1111122' 
DISL,ioos:station:DISL:MBLA:1,2013-06-02T13:00:00Z,30.4367,-88.0117,14.2,10.2,355.0,-9999.0,'1111122,1111122,1111122' 
DISL,ioos:station:DISL:MBLA:1,2013-06-02T13:30:00Z,30.4367,-88.0117,14.2,9.43,359.5,-9999.0,'1111122,1111122,1111122' 
DISL,ioos:station:DISL:MBLA:1,2013-06-02T14:00:00Z,30.4367,-88.0117,14.2,7.82,359.5,-9999.0,'1111122,1111122,1111122' 
DISL,ioos:station:DISL:MBLA:1,2013-06-02T14:30:00Z,30.4367,-88.0117,14.2,5.93,6.635,-9999.0,'1111122,1111122,1111122' 
DISL,ioos:station:DISL:MBLA:1,2013-06-02T15:00:00Z,30.4367,-88.0117,14.2,5.64,354.4,-9999.0,'1111122,1111122,1111122' 
DISL,ioos:station:DISL:MBLA:1,2013-06-02T15:30:00Z,30.4367,-88.0117,14.2,3.63,6.852,-9999.0,'1111122,1111122,1111122' 
DISL,ioos:station:DISL:MBLA:1,2013-06-02T16:00:00Z,30.4367,-88.0117,14.2,1.36,355.5,-9999.0,'1111122,1111122,1111122' 
DISL,ioos:station:DISL:MBLA:1,2013-06-02T16:30:00Z,30.4367,-88.0117,14.2,0.63,257.1,-9999.0,'1111122,1111122,1111122' 
DISL,ioos:station:DISL:MBLA:1,2013-06-02T17:00:00Z,30.4367,-88.0117,14.2,2.23,226.0,-9999.0,'1111122,1111122,1111122' 
DISL,ioos:station:DISL:MBLA:1,2013-06-02T17:30:00Z,30.4367,-88.0117,14.2,3.81,197.1,-9999.0,'1111122,1111122,1111122' 
DISL,ioos:station:DISL:MBLA:1,2013-06-02T18:00:00Z,30.4367,-88.0117,14.2,6.22,160.6,-9999.0,'1111122,1111122,1111122' 
DISL,ioos:station:DISL:MBLA:1,2013-06-02T18:30:00Z,30.4367,-88.0117,14.2,6.03,160.4,-9999.0,'1111122,1111122,1111122' 
DISL,ioos:station:DISL:MBLA:1,2013-06-02T19:00:00Z,30.4367,-88.0117,14.2,6.26,157.8,-9999.0,'1111122,1111122,1111122' 
DISL,ioos:station:DISL:MBLA:1,2013-06-02T19:30:00Z,30.4367,-88.0117,14.2,7.35,171.9,-9999.0,'1111122,1111122,1111122' 
DISL,ioos:station:DISL:MBLA:1,2013-06-02T20:00:00Z,30.4367,-88.0117,14.2,8.15,169.7,-9999.0,'1111122,1111122,1111122' 
DISL,ioos:station:DISL:MBLA:1,2013-06-02T20:30:00Z,30.4367,-88.0117,14.2,7.6,167.0,-9999.0,'1111122,1111122,1111122' 
DISL,ioos:station:DISL:MBLA:1,2013-06-02T21:00:00Z,30.4367,-88.0117,14.2,6.22,159.6,-9999.0,'1111122,1111122,1111122' 
DISL,ioos:station:DISL:MBLA:1,2013-06-02T21:30:00Z,30.4367,-88.0117,14.2,6.36,167.3,-9999.0,'1111122,1111122,1111122' 
DISL,ioos:station:DISL:MBLA:1,2013-06-02T22:00:00Z,30.4367,-88.0117,14.2,7.72,177.4,-9999.0,'1111122,1111122,1111122' 
DISL,ioos:station:DISL:MBLA:1,2013-06-02T22:30:00Z,30.4367,-88.0117,14.2,8.39,190.1,-9999.0,'1111122,1111122,1111122' 
DISL,ioos:station:DISL:MBLA:1,2013-06-02T23:00:00Z,30.4367,-88.0117,14.2,8.6,199.9,-9999.0,'1111122,1111122,1111122' 
DISL,ioos:station:DISL:MBLA:1,2013-06-02T23:30:00Z,30.4367,-88.0117,14.2,9.1,185.0,-9999.0,'1111122,1111122,1111122' 
DISL,ioos:station:DISL:MBLA:1,2013-06-03T00:00:00Z,30.4367,-88.0117,14.2,8.9,190.8,-9999.0,'1111122,1111122,1111122' 
DISL,ioos:station:DISL:MBLA:1,2013-06-03T00:30:00Z,30.4367,-88.0117,14.2,7.77,202.6,-9999.0,'1111122,1111122,1111122' 
DISL,ioos:station:DISL:MBLA:1,2013-06-03T01:00:00Z,30.4367,-88.0117,14.2,6.9,198.8,-9999.0,'1111122,1111122,1111122' 
DISL,ioos:station:DISL:MBLA:1,2013-06-03T01:30:00Z,30.4367,-88.0117,14.2,4.25,194.1,-9999.0,'1111122,1111122,1111122' 
DISL,ioos:station:DISL:MBLA:1,2013-06-03T02:00:00Z,30.4367,-88.0117,14.2,2.8,213.0,-9999.0,'1111122,1111122,1111122' 
DISL,ioos:station:DISL:MBLA:1,2013-06-03T02:30:00Z,30.4367,-88.0117,14.2,11.93,14.82,-9999.0,'1111122,1111122,1111122' 
DISL,ioos:station:DISL:MBLA:1,2013-06-03T03:00:00Z,30.4367,-88.0117,14.2,8.35,35.21,-9999.0,'1111122,1111122,1111122' 
DISL,ioos:station:DISL:MBLA:1,2013-06-03T03:30:00Z,30.4367,-88.0117,14.2,5.38,40.61,-9999.0,'1111122,1111122,1111122' 
DISL,ioos:station:DISL:MBLA:1,2013-06-03T04:00:00Z,30.4367,-88.0117,14.2,2.92,86.9,-9999.0,'1111122,1111122,1111122' 
DISL,ioos:station:DISL:MBLA:1,2013-06-03T04:30:00Z,30.4367,-88.0117,14.2,3.75,71.09,-9999.0,'1111122,1111122,1111122' 
DISL,ioos:station:DISL:MBLA:1,2013-06-03T05:00:00Z,30.4367,-88.0117,14.2,2.2,79.51,-9999.0,'1111122,1111122,1111122' 
DISL,ioos:station:DISL:MBLA:1,2013-06-03T05:30:00Z,30.4367,-88.0117,14.2,2.21,147.9,-9999.0,'1111122,1111122,1111122' 
DISL,ioos:station:DISL:MBLA:1,2013-06-03T06:00:00Z,30.4367,-88.0117,14.2,3.12,140.3,-9999.0,'1111122,1111122,1111122' 
DISL,ioos:station:DISL:MBLA:1,2013-06-03T06:30:00Z,30.4367,-88.0117,14.2,3.54,136.0,-9999.0,'1111122,1111122,1111122' 
DISL,ioos:station:DISL:MBLA:1,2013-06-03T07:00:00Z,30.4367,-88.0117,14.2,0.62,160.5,-9999.0,'1111122,1111122,1111122' 
DISL,ioos:station:DISL:MBLA:1,2013-06-03T07:30:00Z,30.4367,-88.0117,14.2,1.51,144.8,-9999.0,'1111122,1111122,1111122' 
DISL,ioos:station:DISL:MBLA:1,2013-06-03T08:00:00Z,30.4367,-88.0117,14.2,1.7,143.4,-9999.0,'1111122,1111122,1111122' 
DISL,ioos:station:DISL:MBLA:1,2013-06-03T08:30:00Z,30.4367,-88.0117,14.2,1.5,150.4,-9999.0,'1111122,1111122,1111122' 
DISL,ioos:station:DISL:MBLA:1,2013-06-03T09:00:00Z,30.4367,-88.0117,14.2,0.77,146.4,-9999.0,'1111122,1111122,1111122' 
DISL,ioos:station:DISL:MBLA:1,2013-06-03T09:30:00Z,30.4367,-88.0117,14.2,1.29,160.2,-9999.0,'1111122,1111122,1111122' 
DISL,ioos:station:DISL:MBLA:1,2013-06-03T10:00:00Z,30.4367,-88.0117,14.2,1.01,158.0,-9999.0,'1111122,1111122,1111122' 
DISL,ioos:station:DISL:MBLA:1,2013-06-03T10:30:00Z,30.4367,-88.0117,14.2,3.15,193.8,-9999.0,'1111122,1111122,1111122' 
DISL,ioos:station:DISL:MBLA:1,2013-06-03T11:00:00Z,30.4367,-88.0117,14.2,3.43,192.3,-9999.0,'1111122,1111122,1111122' 
DISL,ioos:station:DISL:MBLA:1,2013-06-03T11:30:00Z,30.4367,-88.0117,14.2,4.26,188.8,-9999.0,'1111122,1111122,1111122' 
DISL,ioos:station:DISL:MBLA:1,2013-06-03T12:00:00Z,30.4367,-88.0117,14.2,4.09,201.6,-9999.0,'1111122,1111122,1111122' 
DISL,ioos:station:DISL:MBLA:1,2013-06-03T12:30:00Z,30.4367,-88.0117,14.2,4.43,197.7,-9999.0,'1111122,1111122,1111122' 
DISL,ioos:station:DISL:MBLA:1,2013-06-03T13:00:00Z,30.4367,-88.0117,14.2,4.28,200.3,-9999.0,'1111122,1111122,1111122' 
DISL,ioos:station:DISL:MBLA:1,2013-06-03T13:30:00Z,30.4367,-88.0117,14.2,4.04,215.9,-9999.0,'1111122,1111122,1111122' 
DISL,ioos:station:DISL:MBLA:1,2013-06-03T14:00:00Z,30.4367,-88.0117,14.2,2.47,207.8,-9999.0,'1111122,1111122,1111122' 
DISL,ioos:station:DISL:MBLA:1,2013-06-03T14:30:00Z,30.4367,-88.0117,14.2,3.98,13.57,-9999.0,'1111122,1111122,1111122' 
DISL,ioos:station:DISL:MBLA:1,2013-06-03T15:00:00Z,30.4367,-88.0117,14.2,4.98,2.323,-9999.0,'1111122,1111122,1111122' 
DISL,ioos:station:DISL:MBLA:1,2013-06-03T15:30:00Z,30.4367,-88.0117,14.2,6.7,72.89,-9999.0,'1111122,1111122,1111122' 
DISL,ioos:station:DISL:MBLA:1,2013-06-03T16:00:00Z,30.4367,-88.0117,14.2,3.6,21.22,-9999.0,'1111122,1111122,1111122' 
DISL,ioos:station:DISL:MBLA:1,2013-06-03T16:30:00Z,30.4367,-88.0117,14.2,3.17,309.7,-9999.0,'1111122,1111122,1111122' 
DISL,ioos:station:DISL:MBLA:1,2013-06-03T17:00:00Z,30.4367,-88.0117,14.2,1.27,133.4,-9999.0,'1111122,1111122,1111122' 
DISL,ioos:station:DISL:MBLA:1,2013-06-03T17:30:00Z,30.4367,-88.0117,14.2,2.23,28.43,-9999.0,'1111122,1111122,1111122' 
DISL,ioos:station:DISL:MBLA:1,2013-06-03T18:00:00Z,30.4367,-88.0117,14.2,1.28,11.04,-9999.0,'1111122,1111122,1111122' 
DISL,ioos:station:DISL:MBLA:1,2013-06-03T18:30:00Z,30.4367,-88.0117,14.2,1.41,68.71,-9999.0,'1111122,1111122,1111122' 
DISL,ioos:station:DISL:MBLA:1,2013-06-03T19:00:00Z,30.4367,-88.0117,14.2,1.25,97.5,-9999.0,'1111122,1111122,1111122' 
DISL,ioos:station:DISL:MBLA:1,2013-06-03T19:30:00Z,30.4367,-88.0117,14.2,1.78,178.4,-9999.0,'1111122,1111122,1111122' 
DISL,ioos:station:DISL:MBLA:1,2013-06-03T20:00:00Z,30.4367,-88.0117,14.2,2.54,170.6,-9999.0,'1111122,1111122,1111122' 
DISL,ioos:station:DISL:MBLA:1,2013-06-03T20:30:00Z,30.4367,-88.0117,14.2,4.08,163.0,-9999.0,'1111122,1111122,1111122' 
DISL,ioos:station:DISL:MBLA:1,2013-06-03T21:00:00Z,30.4367,-88.0117,14.2,4.02,173.4,-9999.0,'1111122,1111122,1111122' 
DISL,ioos:station:DISL:MBLA:1,2013-06-03T21:30:00Z,30.4367,-88.0117,14.2,3.89,168.4,-9999.0,'1111122,1111122,1111122' 
DISL,ioos:station:DISL:MBLA:1,2013-06-03T22:00:00Z,30.4367,-88.0117,14.2,4.91,170.7,-9999.0,'1111122,1111122,1111122' 
DISL,ioos:station:DISL:MBLA:1,2013-06-03T22:30:00Z,30.4367,-88.0117,14.2,5.16,167.3,-9999.0,'1111122,1111122,1111122' 
DISL,ioos:station:DISL:MBLA:1,2013-06-03T23:00:00Z,30.4367,-88.0117,14.2,4.22,171.2,-9999.0,'1111122,1111122,1111122' 
DISL,ioos:station:DISL:MBLA:1,2013-06-03T23:30:00Z,30.4367,-88.0117,14.2,4.22,169.1,-9999.0,'1111122,1111122,1111122' 
DISL,ioos:station:DISL:MBLA:1,2013-06-04T00:00:00Z,30.4367,-88.0117,14.2,3.98,178.7,-9999.0,'1111122,1111122,1111122' 
DISL,ioos:station:DISL:MBLA:1,2013-06-04T00:30:00Z,30.4367,-88.0117,14.2,3.13,161.3,-9999.0,'1111122,1111122,1111122' 
DISL,ioos:station:DISL:MBLA:1,2013-06-04T01:00:00Z,30.4367,-88.0117,14.2,2.03,158.7,-9999.0,'1111122,1111122,1111122' 
DISL,ioos:station:DISL:MBLA:1,2013-06-04T01:30:00Z,30.4367,-88.0117,14.2,2.91,146.6,-9999.0,'1111122,1111122,1111122' 
DISL,ioos:station:DISL:MBLA:1,2013-06-04T02:00:00Z,30.4367,-88.0117,14.2,4.05,104.7,-9999.0,'1111122,1111122,1111122' 
DISL,ioos:station:DISL:MBLA:1,2013-06-04T02:30:00Z,30.4367,-88.0117,14.2,4.24,107.5,-9999.0,'1111122,1111122,1111122' 
DISL,ioos:station:DISL:MBLA:1,2013-06-04T03:00:00Z,30.4367,-88.0117,14.2,4.19,117.0,-9999.0,'1111122,1111122,1111122' 
DISL,ioos:station:DISL:MBLA:1,2013-06-04T03:30:00Z,30.4367,-88.0117,14.2,4.86,141.9,-9999.0,'1111122,1111122,1111122' 
DISL,ioos:station:DISL:MBLA:1,2013-06-04T04:00:00Z,30.4367,-88.0117,14.2,6.38,158.0,-9999.0,'1111122,1111122,1111122' 
DISL,ioos:station:DISL:MBLA:1,2013-06-04T04:30:00Z,30.4367,-88.0117,14.2,6.88,163.4,-9999.0,'1111122,1111122,1111122' 
DISL,ioos:station:DISL:MBLA:1,2013-06-04T05:00:00Z,30.4367,-88.0117,14.2,5.98,160.7,-9999.0,'1111122,1111122,1111122' 
DISL,ioos:station:DISL:MBLA:1,2013-06-04T05:30:00Z,30.4367,-88.0117,14.2,4.77,165.6,-9999.0,'1111122,1111122,1111122' 
DISL,ioos:station:DISL:MBLA:1,2013-06-04T06:00:00Z,30.4367,-88.0117,14.2,4.99,165.7,-9999.0,'1111122,1111122,1111122' 
DISL,ioos:station:DISL:MBLA:1,2013-06-04T06:30:00Z,30.4367,-88.0117,14.2,5.35,158.1,-9999.0,'1111122,1111122,1111122' 
DISL,ioos:station:DISL:MBLA:1,2013-06-04T07:00:00Z,30.4367,-88.0117,14.2,4.31,148.8,-9999.0,'1111122,1111122,1111122' 
DISL,ioos:station:DISL:MBLA:1,2013-06-04T07:30:00Z,30.4367,-88.0117,14.2,3.53,161.5,-9999.0,'1111122,1111122,1111122' 
DISL,ioos:station:DISL:MBLA:1,2013-06-04T08:00:00Z,30.4367,-88.0117,14.2,3.0,174.4,-9999.0,'1111122,1111122,1111122' 
DISL,ioos:station:DISL:MBLA:1,2013-06-04T08:30:00Z,30.4367,-88.0117,14.2,3.27,135.8,-9999.0,'1111122,1111122,1111122' 
DISL,ioos:station:DISL:MBLA:1,2013-06-04T09:00:00Z,30.4367,-88.0117,14.2,3.17,79.09,-9999.0,'1111122,1111122,1111122' 
DISL,ioos:station:DISL:MBLA:1,2013-06-04T09:30:00Z,30.4367,-88.0117,14.2,3.33,73.14,-9999.0,'1111122,1111122,1111122' 
DISL,ioos:station:DISL:MBLA:1,2013-06-04T10:00:00Z,30.4367,-88.0117,14.2,3.44,82.1,-9999.0,'1111122,1111122,1111122' 
DISL,ioos:station:DISL:MBLA:1,2013-06-04T10:30:00Z,30.4367,-88.0117,14.2,3.41,82.2,-9999.0,'1111122,1111122,1111122' 
DISL,ioos:station:DISL:MBLA:1,2013-06-04T11:00:00Z,30.4367,-88.0117,14.2,4.01,75.57,-9999.0,'1111122,1111122,1111122' 
DISL,ioos:station:DISL:MBLA:1,2013-06-04T11:30:00Z,30.4367,-88.0117,14.2,3.89,80.6,-9999.0,'1111122,1111122,1111122' 
DISL,ioos:station:DISL:MBLA:1,2013-06-04T12:00:00Z,30.4367,-88.0117,14.2,3.62,79.55,-9999.0,'1111122,1111122,1111122' 
DISL,ioos:station:DISL:MBLA:1,2013-06-04T12:30:00Z,30.4367,-88.0117,14.2,3.86,65.75,-9999.0,'1111122,1111122,1111122' 
DISL,ioos:station:DISL:MBLA:1,2013-06-04T13:00:00Z,30.4367,-88.0117,14.2,3.85,83.6,-9999.0,'1111122,1111122,1111122' 
DISL,ioos:station:DISL:MBLA:1,2013-06-04T13:30:00Z,30.4367,-88.0117,14.2,3.66,69.5,-9999.0,'1111122,1111122,1111122' 
DISL,ioos:station:DISL:MBLA:1,2013-06-04T14:00:00Z,30.4367,-88.0117,14.2,4.28,86.6,-9999.0,'1111122,1111122,1111122' 
DISL,ioos:station:DISL:MBLA:1,2013-06-04T14:30:00Z,30.4367,-88.0117,14.2,3.23,100.4,-9999.0,'1111122,1111122,1111122' 
DISL,ioos:station:DISL:MBLA:1,2013-06-04T15:00:00Z,30.4367,-88.0117,14.2,2.18,100.7,-9999.0,'1111122,1111122,1111122' 
DISL,ioos:station:DISL:MBLA:1,2013-06-04T15:30:00Z,30.4367,-88.0117,14.2,2.09,135.7,-9999.0,'1111122,1111122,1111122' 
DISL,ioos:station:DISL:MBLA:1,2013-06-04T16:00:00Z,30.4367,-88.0117,14.2,1.78,160.4,-9999.0,'1111122,1111122,1111122' 
DISL,ioos:station:DISL:MBLA:1,2013-06-04T16:30:00Z,30.4367,-88.0117,14.2,3.59,145.5,-9999.0,'1111122,1111122,1111122' 
DISL,ioos:station:DISL:MBLA:1,2013-06-04T17:00:00Z,30.4367,-88.0117,14.2,3.69,158.5,-9999.0,'1111122,1111122,1111122' 
DISL,ioos:station:DISL:MBLA:1,2013-06-04T17:30:00Z,30.4367,-88.0117,14.2,5.07,158.6,-9999.0,'1111122,1111122,1111122' 
DISL,ioos:station:DISL:MBLA:1,2013-06-04T18:00:00Z,30.4367,-88.0117,14.2,5.75,155.8,-9999.0,'1111122,1111122,1111122' 
DISL,ioos:station:DISL:MBLA:1,2013-06-04T18:30:00Z,30.4367,-88.0117,14.2,6.34,160.5,-9999.0,'1111122,1111122,1111122' 
DISL,ioos:station:DISL:MBLA:1,2013-06-04T19:00:00Z,30.4367,-88.0117,14.2,6.53,161.9,-9999.0,'1111122,1111122,1111122' 
DISL,ioos:station:DISL:MBLA:1,2013-06-04T19:30:00Z,30.4367,-88.0117,14.2,5.44,158.3,-9999.0,'1111122,1111122,1111122' 
DISL,ioos:station:DISL:MBLA:1,2013-06-04T20:00:00Z,30.4367,-88.0117,14.2,6.16,158.0,-9999.0,'1111122,1111122,1111122' 
DISL,ioos:station:DISL:MBLA:1,2013-06-04T20:30:00Z,30.4367,-88.0117,14.2,5.95,155.3,-9999.0,'1111122,1111122,1111122' 
DISL,ioos:station:DISL:MBLA:1,2013-06-04T21:00:00Z,30.4367,-88.0117,14.2,7.22,147.5,-9999.0,'1111122,1111122,1111122' 
DISL,ioos:station:DISL:MBLA:1,2013-06-04T21:30:00Z,30.4367,-88.0117,14.2,7.31,149.3,-9999.0,'1111122,1111122,1111122' 
DISL,ioos:station:DISL:MBLA:1,2013-06-04T22:00:00Z,30.4367,-88.0117,14.2,7.28,147.5,-9999.0,'1111122,1111122,1111122' 
DISL,ioos:station:DISL:MBLA:1,2013-06-04T22:30:00Z,30.4367,-88.0117,14.2,7.67,132.5,-9999.0,'1111122,1111122,1111122' 
DISL,ioos:station:DISL:MBLA:1,2013-06-04T23:00:00Z,30.4367,-88.0117,14.2,8.08,134.1,-9999.0,'1111122,1111122,1111122' 
DISL,ioos:station:DISL:MBLA:1,2013-06-04T23:30:00Z,30.4367,-88.0117,14.2,7.53,143.6,-9999.0,'1111122,1111122,1111122' 
DISL,ioos:station:DISL:MBLA:1,2013-06-05T00:00:00Z,30.4367,-88.0117,14.2,8.32,141.6,-9999.0,'1111122,1111122,1111122' 
DISL,ioos:station:DISL:MBLA:1,2013-06-05T00:30:00Z,30.4367,-88.0117,14.2,7.08,132.4,-9999.0,'1111122,1111122,1111122' 
DISL,ioos:station:DISL:MBLA:1,2013-06-05T01:00:00Z,30.4367,-88.0117,14.2,7.64,132.9,-9999.0,'1111122,1111122,1111122' 
DISL,ioos:station:DISL:MBLA:1,2013-06-05T01:30:00Z,30.4367,-88.0117,14.2,7.77,138.3,-9999.0,'1111122,1111122,1111122' 
DISL,ioos:station:DISL:MBLA:1,2013-06-05T02:00:00Z,30.4367,-88.0117,14.2,10.3,133.5,-9999.0,'1111122,1111122,1111122' 
DISL,ioos:station:DISL:MBLA:1,2013-06-05T02:30:00Z,30.4367,-88.0117,14.2,9.47,138.2,-9999.0,'1111122,1111122,1111122' 
DISL,ioos:station:DISL:MBLA:1,2013-06-05T03:00:00Z,30.4367,-88.0117,14.2,9.84,148.6,-9999.0,'1111122,1111122,1111122' 
DISL,ioos:station:DISL:MBLA:1,2013-06-05T03:30:00Z,30.4367,-88.0117,14.2,8.98,156.0,-9999.0,'1111122,1111122,1111122' 
DISL,ioos:station:DISL:MBLA:1,2013-06-05T04:00:00Z,30.4367,-88.0117,14.2,7.97,158.9,-9999.0,'1111122,1111122,1111122' 